TimeCDT,TemperatureF,Dew PointF,Humidity,Sea Level PressureIn,VisibilityMPH,Wind Direction,Wind SpeedMPH,Gust SpeedMPH,PrecipitationIn,Events,Conditions,WindDirDegrees,DateUTC
12:13 AM,39.2,37.4,93,29.94,10.0,NNW,5.8,-,N/A,,Light Drizzle,330,2013-10-18 05:13:00
12:33 AM,39.2,37.4,93,29.93,10.0,WNW,3.5,-,N/A,,Overcast,300,2013-10-18 05:33:00
12:53 AM,39.2,37.4,93,29.93,10.0,WNW,5.8,-,N/A,,Overcast,300,2013-10-18 05:53:00
1:14 AM,39.2,35.6,87,29.93,10.0,WNW,8.1,-,N/A,,Overcast,300,2013-10-18 06:14:00
1:33 AM,39.2,35.6,87,29.94,10.0,WNW,8.1,-,N/A,,Overcast,290,2013-10-18 06:33:00
1:53 AM,39.2,35.6,87,29.94,10.0,WNW,9.2,-,N/A,,Overcast,290,2013-10-18 06:53:00
2:13 AM,37.4,35.6,93,29.94,10.0,WNW,9.2,-,N/A,,Overcast,300,2013-10-18 07:13:00
2:33 AM,37.4,35.6,93,29.94,10.0,WNW,9.2,-,N/A,,Overcast,300,2013-10-18 07:33:00
2:53 AM,37.4,33.8,87,29.94,10.0,WNW,8.1,-,N/A,,Mostly Cloudy,300,2013-10-18 07:53:00
3:13 AM,35.6,33.8,93,29.94,10.0,WNW,6.9,-,N/A,,Scattered Clouds,290,2013-10-18 08:13:00
3:33 AM,33.8,32.0,93,29.94,10.0,WNW,8.1,-,N/A,,Clear,290,2013-10-18 08:33:00
3:54 AM,33.8,32.0,93,29.94,10.0,WNW,6.9,-,N/A,,Clear,290,2013-10-18 08:54:00
4:13 AM,33.8,30.2,87,29.95,10.0,West,6.9,-,N/A,,Clear,280,2013-10-18 09:13:00
4:33 AM,33.8,30.2,87,29.95,10.0,WNW,8.1,-,N/A,,Clear,290,2013-10-18 09:33:00
4:53 AM,32.0,30.2,93,29.95,10.0,WNW,6.9,-,N/A,,Clear,300,2013-10-18 09:53:00
5:13 AM,32.0,30.2,93,29.95,10.0,WNW,6.9,-,N/A,,Clear,300,2013-10-18 10:13:00
5:34 AM,32.0,30.2,93,29.95,10.0,West,5.8,-,N/A,,Clear,270,2013-10-18 10:34:00
5:53 AM,32.0,30.2,93,29.96,10.0,West,6.9,-,N/A,,Clear,270,2013-10-18 10:53:00
6:13 AM,30.2,28.4,93,29.96,10.0,West,6.9,-,N/A,,Clear,260,2013-10-18 11:13:00
6:33 AM,30.2,28.4,93,29.96,10.0,West,5.8,-,N/A,,Clear,270,2013-10-18 11:33:00
6:53 AM,30.2,28.4,93,29.96,10.0,West,6.9,-,N/A,,Clear,260,2013-10-18 11:53:00
7:14 AM,30.2,30.2,100,29.96,10.0,West,6.9,-,N/A,,Clear,260,2013-10-18 12:14:00
7:33 AM,30.2,30.2,100,29.97,10.0,West,8.1,-,N/A,,Clear,260,2013-10-18 12:33:00
7:52 AM,30.2,30.2,100,29.97,10.0,West,10.4,-,N/A,,Clear,260,2013-10-18 12:52:00
8:13 AM,30.2,30.2,100,29.98,10.0,West,10.4,-,N/A,,Clear,270,2013-10-18 13:13:00
8:31 AM,32.0,30.2,93,29.98,10.0,West,8.1,-,N/A,,Clear,270,2013-10-18 13:31:00
8:53 AM,33.8,30.2,87,29.98,10.0,West,8.1,-,N/A,,Clear,270,2013-10-18 13:53:00
9:13 AM,33.8,30.2,87,29.99,10.0,West,6.9,-,N/A,,Clear,260,2013-10-18 14:13:00
9:34 AM,35.6,32.0,87,29.99,10.0,West,5.8,-,N/A,,Clear,270,2013-10-18 14:34:00
9:53 AM,35.6,32.0,87,29.99,10.0,West,11.5,-,N/A,,Clear,280,2013-10-18 14:53:00
10:13 AM,37.4,33.8,87,29.98,10.0,West,8.1,-,N/A,,Clear,260,2013-10-18 15:13:00
10:34 AM,39.2,33.8,81,29.98,10.0,WSW,9.2,-,N/A,,Clear,250,2013-10-18 15:34:00
10:53 AM,41.0,33.8,76,29.97,10.0,West,10.4,-,N/A,,Clear,260,2013-10-18 15:53:00
11:14 AM,42.8,33.8,70,29.97,10.0,West,9.2,-,N/A,,Clear,260,2013-10-18 16:14:00
11:33 AM,44.6,33.8,66,29.97,10.0,West,9.2,-,N/A,,Clear,270,2013-10-18 16:33:00
11:53 AM,44.6,35.6,71,29.97,10.0,WSW,8.1,-,N/A,,Clear,240,2013-10-18 16:53:00
12:14 PM,46.4,35.6,66,29.97,10.0,West,10.4,-,N/A,,Clear,260,2013-10-18 17:14:00
12:33 PM,46.4,33.8,62,29.96,10.0,West,11.5,-,N/A,,Clear,260,2013-10-18 17:33:00
12:53 PM,46.4,33.8,62,29.95,10.0,West,10.4,17.3,N/A,,Clear,260,2013-10-18 17:53:00
1:13 PM,48.2,32.0,54,29.95,10.0,West,12.7,20.7,N/A,,Clear,260,2013-10-18 18:13:00
1:33 PM,48.2,30.2,50,29.94,10.0,WSW,12.7,-,N/A,,Clear,250,2013-10-18 18:33:00
1:54 PM,50.0,30.2,47,29.93,10.0,West,13.8,18.4,N/A,,Clear,260,2013-10-18 18:54:00
2:13 PM,50.0,32.0,50,29.92,10.0,West,11.5,16.1,N/A,,Scattered Clouds,260,2013-10-18 19:13:00
2:33 PM,48.2,30.2,50,29.91,10.0,WSW,12.7,17.3,N/A,,Scattered Clouds,240,2013-10-18 19:33:00
2:54 PM,48.2,30.2,50,29.90,10.0,West,11.5,-,N/A,,Scattered Clouds,270,2013-10-18 19:54:00
3:13 PM,48.2,28.4,46,29.89,10.0,West,13.8,-,N/A,,Scattered Clouds,260,2013-10-18 20:13:00
3:33 PM,48.2,30.2,50,29.89,10.0,WSW,10.4,-,N/A,,Scattered Clouds,250,2013-10-18 20:33:00
3:53 PM,44.6,33.8,66,29.90,10.0,West,11.5,25.3,N/A,,Drizzle,270,2013-10-18 20:53:00
4:13 PM,44.6,35.6,71,29.90,10.0,West,4.6,-,N/A,,Mostly Cloudy,260,2013-10-18 21:13:00
4:34 PM,42.8,35.6,76,29.90,10.0,NW,6.9,12.7,N/A,Rain,Light Rain,310,2013-10-18 21:34:00
4:53 PM,42.8,35.6,76,29.89,10.0,WNW,5.8,-,N/A,,Scattered Clouds,300,2013-10-18 21:53:00
5:13 PM,42.8,35.6,76,29.89,10.0,Calm,Calm,-,N/A,,Mostly Cloudy,0,2013-10-18 22:13:00
5:34 PM,42.8,35.6,76,29.88,10.0,Calm,Calm,-,N/A,,Overcast,0,2013-10-18 22:34:00
5:53 PM,42.8,35.6,76,29.88,10.0,Calm,Calm,-,N/A,,Mostly Cloudy,0,2013-10-18 22:53:00
6:13 PM,42.8,35.6,76,29.88,10.0,WSW,3.5,-,N/A,,Scattered Clouds,250,2013-10-18 23:13:00
6:33 PM,42.8,35.6,76,29.88,10.0,WSW,4.6,-,N/A,,Mostly Cloudy,240,2013-10-18 23:33:00
6:53 PM,42.8,35.6,76,29.88,10.0,West,11.5,-,N/A,Rain,Rain,260,2013-10-18 23:53:00
7:13 PM,41.0,35.6,81,29.88,10.0,WSW,10.4,-,N/A,,Mostly Cloudy,250,2013-10-19 00:13:00
7:33 PM,39.2,35.6,87,29.88,10.0,SW,10.4,-,N/A,,Mostly Cloudy,220,2013-10-19 00:33:00
7:53 PM,37.4,35.6,93,29.88,10.0,SSW,5.8,-,N/A,,Clear,200,2013-10-19 00:53:00
8:14 PM,37.4,35.6,93,29.87,10.0,SW,3.5,-,N/A,,Mostly Cloudy,230,2013-10-19 01:14:00
8:33 PM,37.4,35.6,93,29.87,10.0,SW,4.6,-,N/A,,Mostly Cloudy,230,2013-10-19 01:33:00
8:53 PM,37.4,35.6,93,29.86,10.0,WSW,4.6,-,N/A,,Mostly Cloudy,240,2013-10-19 01:53:00
9:13 PM,37.4,35.6,93,29.86,10.0,WSW,5.8,-,N/A,,Scattered Clouds,250,2013-10-19 02:13:00
9:33 PM,39.2,35.6,87,29.85,10.0,West,8.1,-,N/A,,Mostly Cloudy,260,2013-10-19 02:33:00
9:54 PM,39.2,35.6,87,29.85,10.0,WSW,5.8,-,N/A,,Mostly Cloudy,250,2013-10-19 02:54:00
10:13 PM,37.4,35.6,93,29.85,10.0,WSW,9.2,-,N/A,,Mostly Cloudy,250,2013-10-19 03:13:00
10:33 PM,37.4,33.8,87,29.84,10.0,WSW,6.9,-,N/A,,Clear,240,2013-10-19 03:33:00
10:53 PM,35.6,33.8,93,29.84,10.0,WSW,5.8,-,N/A,,Clear,240,2013-10-19 03:53:00
11:13 PM,35.6,33.8,93,29.83,10.0,SW,6.9,-,N/A,,Scattered Clouds,230,2013-10-19 04:13:00
11:34 PM,35.6,33.8,93,29.82,10.0,SW,8.1,-,N/A,,Scattered Clouds,220,2013-10-19 04:34:00
11:53 PM,35.6,33.8,93,29.81,10.0,SW,9.2,-,N/A,,Scattered Clouds,230,2013-10-19 04:53:00